Year,Month,Day,Hour,Minute,Value (Times are PST for temperature in C)
2015,05,25,00,00,12.90
2015,05,25,00,01,12.80
2015,05,25,00,02,12.80
2015,05,25,00,03,12.80
2015,05,25,00,04,12.80
2015,05,25,00,05,12.80
2015,05,25,00,06,12.80
2015,05,25,00,07,12.80
2015,05,25,00,08,12.80
2015,05,25,00,09,12.70
2015,05,25,00,10,12.70
2015,05,25,00,11,12.70
2015,05,25,00,12,12.70
2015,05,25,00,13,12.70
2015,05,25,00,14,12.70
2015,05,25,00,15,12.70
2015,05,25,00,16,12.70
2015,05,25,00,17,12.60
2015,05,25,00,18,12.60
2015,05,25,00,19,12.60
2015,05,25,00,20,12.60
2015,05,25,00,21,12.60
2015,05,25,00,22,12.60
2015,05,25,00,23,12.60
2015,05,25,00,24,12.60
2015,05,25,00,25,12.60
2015,05,25,00,26,12.50
2015,05,25,00,27,12.50
2015,05,25,00,28,12.50
2015,05,25,00,29,12.50
2015,05,25,00,30,12.50
2015,05,25,00,31,12.50
2015,05,25,00,32,12.50
2015,05,25,00,33,12.50
2015,05,25,00,34,12.40
2015,05,25,00,35,12.40
2015,05,25,00,36,12.40
2015,05,25,00,37,12.40
2015,05,25,00,38,12.40
2015,05,25,00,39,12.40
2015,05,25,00,40,12.40
2015,05,25,00,41,12.40
2015,05,25,00,42,12.40
2015,05,25,00,43,12.40
2015,05,25,00,44,12.40
2015,05,25,00,45,12.40
2015,05,25,00,46,12.40
2015,05,25,00,47,12.40
2015,05,25,00,48,12.30
2015,05,25,00,49,12.30
2015,05,25,00,50,12.30
2015,05,25,00,51,12.30
2015,05,25,00,52,12.30
2015,05,25,00,53,12.30
2015,05,25,00,54,12.30
2015,05,25,00,55,12.30
2015,05,25,00,56,12.30
2015,05,25,00,57,12.30
2015,05,25,00,58,12.30
2015,05,25,00,59,12.30
2015,05,25,01,00,12.20
2015,05,25,01,01,12.20
2015,05,25,01,02,12.20
2015,05,25,01,03,12.20
2015,05,25,01,04,12.20
2015,05,25,01,05,12.20
2015,05,25,01,06,12.20
2015,05,25,01,07,12.20
2015,05,25,01,08,12.20
2015,05,25,01,09,12.20
2015,05,25,01,10,12.20
2015,05,25,01,11,12.20
2015,05,25,01,12,12.20
2015,05,25,01,13,12.20
2015,05,25,01,14,12.10
2015,05,25,01,15,12.10
2015,05,25,01,16,12.10
2015,05,25,01,17,12.10
2015,05,25,01,18,12.10
2015,05,25,01,19,12.10
2015,05,25,01,20,12.10
2015,05,25,01,21,12.10
2015,05,25,01,22,12.10
2015,05,25,01,23,12.10
2015,05,25,01,24,12.10
2015,05,25,01,25,12.10
2015,05,25,01,26,12.10
2015,05,25,01,27,12.10
2015,05,25,01,28,12.10
2015,05,25,01,29,12.10
2015,05,25,01,30,12.10
2015,05,25,01,31,12.10
2015,05,25,01,32,12.10
2015,05,25,01,33,12.10
2015,05,25,01,34,12.10
2015,05,25,01,35,12.10
2015,05,25,01,36,12.00
2015,05,25,01,37,12.00
2015,05,25,01,38,12.00
2015,05,25,01,39,12.00
2015,05,25,01,40,12.00
2015,05,25,01,41,12.00
2015,05,25,01,42,12.00
2015,05,25,01,43,11.90
2015,05,25,01,44,11.90
2015,05,25,01,45,11.90
2015,05,25,01,46,11.90
2015,05,25,01,47,11.90
2015,05,25,01,48,11.90
2015,05,25,01,49,11.90
2015,05,25,01,50,11.90
2015,05,25,01,51,11.90
2015,05,25,01,52,11.90
2015,05,25,01,53,11.90
2015,05,25,01,54,11.90
2015,05,25,01,55,11.80
2015,05,25,01,56,11.80
2015,05,25,01,57,11.80
2015,05,25,01,58,11.80
2015,05,25,01,59,11.80
2015,05,25,02,00,11.80
2015,05,25,02,01,11.80
2015,05,25,02,02,11.80
2015,05,25,02,03,11.80
2015,05,25,02,04,11.80
2015,05,25,02,05,11.80
2015,05,25,02,06,11.80
2015,05,25,02,07,11.80
2015,05,25,02,08,11.80
2015,05,25,02,09,11.80
2015,05,25,02,10,11.80
2015,05,25,02,11,11.80
2015,05,25,02,12,11.80
2015,05,25,02,13,11.80
2015,05,25,02,14,11.70
2015,05,25,02,15,11.70
2015,05,25,02,16,11.70
2015,05,25,02,17,11.70
2015,05,25,02,18,11.70
2015,05,25,02,19,11.70
2015,05,25,02,20,11.70
2015,05,25,02,21,11.70
2015,05,25,02,22,11.70
2015,05,25,02,23,11.70
2015,05,25,02,24,11.70
2015,05,25,02,25,11.70
2015,05,25,02,26,11.70
2015,05,25,02,27,11.70
2015,05,25,02,28,11.70
2015,05,25,02,29,11.60
2015,05,25,02,30,11.60
2015,05,25,02,31,11.60
2015,05,25,02,32,11.60
2015,05,25,02,33,11.60
2015,05,25,02,34,11.60
2015,05,25,02,35,11.60
2015,05,25,02,36,11.60
2015,05,25,02,37,11.60
2015,05,25,02,38,11.60
2015,05,25,02,39,11.60
2015,05,25,02,40,11.60
2015,05,25,02,41,11.60
2015,05,25,02,42,11.60
2015,05,25,02,43,11.60
2015,05,25,02,44,11.60
2015,05,25,02,45,11.50
2015,05,25,02,46,11.50
2015,05,25,02,47,11.50
2015,05,25,02,48,11.50
2015,05,25,02,49,11.50
2015,05,25,02,50,11.50
2015,05,25,02,51,11.50
2015,05,25,02,52,11.50
2015,05,25,02,53,11.50
2015,05,25,02,54,11.50
2015,05,25,02,55,11.50
2015,05,25,02,56,11.40
2015,05,25,02,57,11.40
2015,05,25,02,58,11.40
2015,05,25,02,59,11.40
2015,05,25,03,00,11.40
2015,05,25,03,01,11.40
2015,05,25,03,02,11.40
2015,05,25,03,03,11.40
2015,05,25,03,04,11.40
2015,05,25,03,05,11.40
2015,05,25,03,06,11.40
2015,05,25,03,07,11.40
2015,05,25,03,08,11.40
2015,05,25,03,09,11.40
2015,05,25,03,10,11.40
2015,05,25,03,11,11.40
2015,05,25,03,12,11.40
2015,05,25,03,13,11.40
2015,05,25,03,14,11.40
2015,05,25,03,15,11.30
2015,05,25,03,16,11.30
2015,05,25,03,17,11.30
2015,05,25,03,18,11.30
2015,05,25,03,19,11.30
2015,05,25,03,20,11.40
2015,05,25,03,21,11.40
2015,05,25,03,22,11.40
2015,05,25,03,23,11.40
2015,05,25,03,24,11.40
2015,05,25,03,25,11.40
2015,05,25,03,26,11.40
2015,05,25,03,27,11.40
2015,05,25,03,28,11.40
2015,05,25,03,29,11.40
2015,05,25,03,30,11.40
2015,05,25,03,31,11.40
2015,05,25,03,32,11.40
2015,05,25,03,33,11.40
2015,05,25,03,34,11.40
2015,05,25,03,35,11.40
2015,05,25,03,36,11.40
2015,05,25,03,37,11.30
2015,05,25,03,38,11.30
2015,05,25,03,39,11.30
2015,05,25,03,40,11.30
2015,05,25,03,41,11.30
2015,05,25,03,42,11.30
2015,05,25,03,43,11.30
2015,05,25,03,44,11.30
2015,05,25,03,45,11.30
2015,05,25,03,46,11.30
2015,05,25,03,47,11.30
2015,05,25,03,48,11.30
2015,05,25,03,49,11.30
2015,05,25,03,50,11.30
2015,05,25,03,51,11.30
2015,05,25,03,52,11.30
2015,05,25,03,53,11.30
2015,05,25,03,54,11.30
2015,05,25,03,55,11.30
2015,05,25,03,56,11.30
2015,05,25,03,57,11.30
2015,05,25,03,58,11.30
2015,05,25,03,59,11.30
2015,05,25,04,00,11.30
2015,05,25,04,01,11.30
2015,05,25,04,02,11.30
2015,05,25,04,03,11.30
2015,05,25,04,04,11.30
2015,05,25,04,05,11.30
2015,05,25,04,06,11.30
2015,05,25,04,07,11.30
2015,05,25,05,02,11.70
2015,05,25,05,03,11.70
2015,05,25,05,04,11.70
2015,05,25,05,05,11.70
2015,05,25,05,06,11.70
2015,05,25,05,07,11.70
2015,05,25,05,08,11.70
2015,05,25,05,09,11.70
2015,05,25,05,10,11.70
2015,05,25,05,11,11.70
2015,05,25,05,12,11.70
2015,05,25,05,13,11.70
2015,05,25,05,14,11.70
2015,05,25,05,15,11.70
2015,05,25,05,16,11.70
2015,05,25,05,17,11.70
2015,05,25,05,18,11.70
2015,05,25,05,19,11.70
2015,05,25,05,20,11.70
2015,05,25,05,21,11.70
2015,05,25,05,22,11.70
2015,05,25,05,23,11.70
2015,05,25,05,24,11.70
2015,05,25,05,25,11.70
2015,05,25,05,26,11.70
2015,05,25,05,27,11.70
2015,05,25,05,28,11.70
2015,05,25,05,29,11.70
2015,05,25,05,30,11.70
2015,05,25,05,31,11.70
2015,05,25,05,32,11.70
2015,05,25,05,33,11.70
2015,05,25,05,34,11.70
2015,05,25,05,35,11.70
2015,05,25,05,36,11.70
2015,05,25,05,37,11.70
2015,05,25,05,38,11.70
2015,05,25,05,39,11.70
2015,05,25,05,40,11.70
2015,05,25,05,41,11.70
2015,05,25,05,42,11.70
2015,05,25,05,43,11.70
2015,05,25,05,44,11.70
2015,05,25,05,45,11.70
2015,05,25,05,46,11.70
2015,05,25,05,47,11.70
2015,05,25,05,48,11.70
2015,05,25,05,49,11.70
2015,05,25,05,50,11.70
2015,05,25,05,51,11.70
2015,05,25,05,52,11.70
2015,05,25,05,53,11.70
2015,05,25,05,54,11.70
2015,05,25,05,55,11.80
2015,05,25,05,56,11.80
2015,05,25,05,57,11.80
2015,05,25,05,58,11.80
2015,05,25,05,59,11.80
2015,05,25,06,00,11.80
2015,05,25,06,01,11.80
2015,05,25,06,02,11.80
2015,05,25,06,03,11.80
2015,05,25,06,04,11.80
2015,05,25,06,05,11.80
2015,05,25,06,06,11.80
2015,05,25,06,07,11.80
2015,05,25,06,08,11.80
2015,05,25,06,09,11.80
2015,05,25,06,10,11.80
2015,05,25,06,11,11.80
2015,05,25,06,12,11.80
2015,05,25,06,13,11.80
2015,05,25,06,14,11.80
2015,05,25,06,15,11.80
2015,05,25,06,16,11.90
2015,05,25,06,17,11.90
2015,05,25,06,18,11.90
2015,05,25,06,19,11.90
2015,05,25,06,20,11.90
2015,05,25,06,21,11.90
2015,05,25,06,22,11.90
2015,05,25,06,23,11.90
2015,05,25,06,24,11.90
2015,05,25,06,25,11.90
2015,05,25,06,26,11.90
2015,05,25,06,27,11.90
2015,05,25,06,28,11.90
2015,05,25,06,29,11.90
2015,05,25,06,30,11.90
2015,05,25,06,31,11.90
2015,05,25,06,32,11.90
2015,05,25,06,33,12.00
2015,05,25,06,34,12.00
2015,05,25,06,35,12.00
2015,05,25,06,36,12.00
2015,05,25,06,37,12.00
2015,05,25,06,38,12.00
2015,05,25,06,39,12.00
2015,05,25,06,40,12.00
2015,05,25,06,41,12.00
2015,05,25,06,42,12.00
2015,05,25,06,43,12.00
2015,05,25,06,44,12.00
2015,05,25,06,45,12.00
2015,05,25,06,46,12.00
2015,05,25,06,47,12.00
2015,05,25,06,48,12.10
2015,05,25,06,49,12.00
2015,05,25,06,50,12.00
2015,05,25,06,51,12.00
2015,05,25,06,52,12.00
2015,05,25,06,53,12.00
2015,05,25,06,54,12.00
2015,05,25,06,55,12.00
2015,05,25,06,56,12.00
2015,05,25,06,57,12.00
2015,05,25,06,58,12.00
2015,05,25,06,59,12.00
2015,05,25,07,00,12.00
2015,05,25,07,01,12.00
2015,05,25,07,02,12.00
2015,05,25,07,03,12.10
2015,05,25,07,04,12.10
2015,05,25,07,05,12.10
2015,05,25,07,06,12.10
2015,05,25,07,07,12.10
2015,05,25,07,08,12.10
2015,05,25,07,09,12.10
2015,05,25,07,10,12.10
2015,05,25,07,11,12.10
2015,05,25,07,12,12.10
2015,05,25,07,13,12.10
2015,05,25,07,14,12.10
2015,05,25,07,15,12.10
2015,05,25,07,16,12.10
2015,05,25,07,17,12.10
2015,05,25,07,18,12.20
2015,05,25,07,19,12.10
2015,05,25,07,20,12.20
2015,05,25,07,21,12.20
2015,05,25,07,22,12.20
2015,05,25,07,23,12.20
2015,05,25,07,24,12.20
2015,05,25,07,25,12.20
2015,05,25,07,26,12.20
2015,05,25,07,27,12.20
2015,05,25,07,28,12.20
2015,05,25,07,29,12.20
2015,05,25,07,30,12.20
2015,05,25,07,31,12.20
2015,05,25,07,32,12.20
2015,05,25,07,33,12.20
2015,05,25,07,34,12.30
2015,05,25,07,35,12.30
2015,05,25,07,36,12.30
2015,05,25,07,37,12.30
2015,05,25,07,38,12.30
2015,05,25,07,39,12.30
2015,05,25,07,40,12.30
2015,05,25,07,41,12.30
2015,05,25,07,42,12.30
2015,05,25,07,43,12.30
2015,05,25,07,44,12.30
2015,05,25,07,45,12.30
2015,05,25,07,46,12.30
2015,05,25,07,47,12.30
2015,05,25,07,48,12.30
2015,05,25,07,49,12.40
2015,05,25,07,50,12.40
2015,05,25,07,51,12.40
2015,05,25,07,52,12.40
2015,05,25,07,53,12.40
2015,05,25,07,54,12.40
2015,05,25,07,55,12.40
2015,05,25,07,56,12.50
2015,05,25,07,57,12.50
2015,05,25,07,58,12.50
2015,05,25,07,59,12.60
2015,05,25,08,00,12.60
2015,05,25,08,01,12.60
2015,05,25,08,02,12.60
2015,05,25,08,03,12.70
2015,05,25,08,04,12.70
2015,05,25,08,05,12.80
2015,05,25,08,06,12.80
2015,05,25,08,07,12.80
2015,05,25,08,08,12.80
2015,05,25,08,09,12.80
2015,05,25,08,10,12.80
2015,05,25,08,11,12.80
2015,05,25,08,12,12.80
2015,05,25,08,13,12.90
2015,05,25,08,14,12.90
2015,05,25,08,15,12.90
2015,05,25,08,16,12.90
2015,05,25,08,17,12.90
2015,05,25,08,18,13.00
2015,05,25,08,19,13.00
2015,05,25,08,20,13.10
2015,05,25,08,21,13.10
2015,05,25,08,22,13.20
2015,05,25,08,23,13.20
2015,05,25,08,24,13.30
2015,05,25,08,25,13.30
2015,05,25,08,26,13.40
2015,05,25,08,27,13.40
2015,05,25,08,28,13.40
2015,05,25,08,29,13.40
2015,05,25,08,30,13.40
2015,05,25,08,31,13.50
2015,05,25,08,32,13.50
2015,05,25,08,33,13.50
2015,05,25,08,34,13.60
2015,05,25,08,35,13.60
2015,05,25,08,36,13.70
2015,05,25,08,37,13.70
2015,05,25,08,38,13.70
2015,05,25,08,39,13.80
2015,05,25,08,40,13.80
2015,05,25,08,41,13.80
2015,05,25,08,42,13.80
2015,05,25,08,43,13.90
2015,05,25,08,44,13.90
2015,05,25,08,45,14.00
2015,05,25,08,46,14.00
2015,05,25,08,47,14.10
2015,05,25,08,48,14.10
2015,05,25,08,49,14.20
2015,05,25,08,50,14.20
2015,05,25,08,51,14.20
2015,05,25,08,52,14.20
2015,05,25,08,53,14.20
2015,05,25,08,54,14.20
2015,05,25,08,55,14.20
2015,05,25,08,56,14.20
2015,05,25,08,57,14.30
2015,05,25,08,58,14.20
2015,05,25,08,59,14.20
2015,05,25,09,00,14.20
2015,05,25,09,01,14.20
2015,05,25,09,02,14.20
2015,05,25,09,03,14.20
2015,05,25,09,04,14.20
2015,05,25,09,05,14.20
2015,05,25,09,06,14.20
2015,05,25,09,07,14.30
2015,05,25,09,08,14.30
2015,05,25,09,09,14.30
2015,05,25,09,10,14.30
2015,05,25,09,11,14.30
2015,05,25,09,12,14.30
2015,05,25,09,13,14.20
2015,05,25,09,14,14.20
2015,05,25,09,15,14.10
2015,05,25,09,16,14.10
2015,05,25,09,17,14.10
2015,05,25,09,18,14.20
2015,05,25,09,19,14.20
2015,05,25,09,20,14.30
2015,05,25,09,21,14.30
2015,05,25,09,22,14.40
2015,05,25,09,23,14.50
2015,05,25,09,24,14.50
2015,05,25,09,25,14.60
2015,05,25,09,26,14.60
2015,05,25,09,27,14.50
2015,05,25,09,28,14.50
2015,05,25,09,29,14.50
2015,05,25,09,30,14.50
2015,05,25,09,31,14.50
2015,05,25,09,32,14.60
2015,05,25,09,33,14.60
2015,05,25,09,34,14.70
2015,05,25,09,35,14.70
2015,05,25,09,36,14.80
2015,05,25,09,37,14.90
2015,05,25,09,38,14.90
2015,05,25,09,39,15.00
2015,05,25,09,40,15.10
2015,05,25,09,41,15.10
2015,05,25,09,42,15.10
2015,05,25,09,43,15.20
2015,05,25,09,44,15.20
2015,05,25,09,45,15.30
2015,05,25,09,46,15.30
2015,05,25,09,47,15.30
2015,05,25,09,48,15.40
2015,05,25,09,49,15.30
2015,05,25,09,50,15.30
2015,05,25,09,51,15.30
2015,05,25,09,52,15.20
2015,05,25,09,53,15.20
2015,05,25,09,54,15.20
2015,05,25,09,55,15.10
2015,05,25,09,56,15.10
2015,05,25,09,57,15.00
2015,05,25,09,58,15.00
2015,05,25,09,59,14.90
2015,05,25,10,00,14.90
2015,05,25,10,01,14.90
2015,05,25,10,02,14.90
2015,05,25,10,03,14.90
2015,05,25,10,04,14.90
2015,05,25,10,05,14.80
2015,05,25,10,06,14.80
2015,05,25,10,07,14.70
2015,05,25,10,08,14.70
2015,05,25,10,09,14.70
2015,05,25,10,10,14.70
2015,05,25,10,11,14.70
2015,05,25,10,12,14.80
2015,05,25,10,13,14.80
2015,05,25,10,14,14.80
2015,05,25,10,15,14.80
2015,05,25,10,16,14.90
2015,05,25,10,17,14.90
2015,05,25,10,18,15.00
2015,05,25,10,19,15.10
2015,05,25,10,20,15.10
2015,05,25,10,21,15.20
2015,05,25,10,22,15.30
2015,05,25,10,23,15.30
2015,05,25,10,24,15.30
2015,05,25,10,25,15.30
2015,05,25,10,26,15.30
2015,05,25,10,27,15.40
2015,05,25,10,28,15.50
2015,05,25,10,29,15.50
2015,05,25,10,30,15.60
2015,05,25,10,31,15.60
2015,05,25,10,32,15.70
2015,05,25,10,33,15.70
2015,05,25,10,34,15.70
2015,05,25,10,35,15.60
2015,05,25,10,36,15.60
2015,05,25,10,37,15.60
2015,05,25,10,38,15.60
2015,05,25,10,39,15.50
2015,05,25,10,40,15.50
2015,05,25,10,41,15.40
2015,05,25,10,42,15.40
2015,05,25,10,43,15.30
2015,05,25,10,44,15.30
2015,05,25,10,45,15.30
2015,05,25,10,46,15.30
2015,05,25,10,47,15.30
2015,05,25,10,48,15.30
2015,05,25,10,49,15.40
2015,05,25,10,50,15.40
2015,05,25,10,51,15.40
2015,05,25,10,52,15.40
2015,05,25,10,53,15.40
2015,05,25,10,54,15.50
2015,05,25,10,55,15.50
2015,05,25,10,56,15.50
2015,05,25,10,57,15.60
2015,05,25,10,58,15.70
2015,05,25,10,59,15.80
2015,05,25,11,00,15.90
2015,05,25,11,01,16.00
2015,05,25,11,02,16.10
2015,05,25,11,03,16.10
2015,05,25,11,04,16.20
2015,05,25,11,05,16.20
2015,05,25,11,06,16.20
2015,05,25,11,07,16.20
2015,05,25,11,08,16.20
2015,05,25,11,09,16.30
2015,05,25,11,10,16.30
2015,05,25,11,11,16.30
2015,05,25,11,12,16.30
2015,05,25,11,13,16.40
2015,05,25,11,14,16.40
2015,05,25,11,15,16.40
2015,05,25,11,16,16.40
2015,05,25,11,17,16.40
2015,05,25,11,18,16.40
2015,05,25,11,19,16.40
2015,05,25,11,20,16.40
2015,05,25,11,21,16.30
2015,05,25,11,22,16.30
2015,05,25,11,23,16.30
2015,05,25,11,24,16.30
2015,05,25,11,25,16.20
2015,05,25,11,26,16.20
2015,05,25,11,27,16.20
2015,05,25,11,28,16.20
2015,05,25,11,29,16.30
2015,05,25,11,30,16.40
2015,05,25,11,31,16.50
2015,05,25,11,32,16.50
2015,05,25,11,33,16.50
2015,05,25,11,34,16.60
2015,05,25,11,35,16.60
2015,05,25,11,36,16.70
2015,05,25,11,37,16.70
2015,05,25,11,38,16.80
2015,05,25,11,39,16.80
2015,05,25,11,40,16.90
2015,05,25,11,41,16.90
2015,05,25,11,42,16.90
2015,05,25,11,43,16.90
2015,05,25,11,44,16.80
2015,05,25,11,45,16.70
2015,05,25,11,46,16.70
2015,05,25,11,47,16.60
2015,05,25,11,48,16.50
2015,05,25,11,49,16.50
2015,05,25,11,50,16.50
2015,05,25,11,51,16.60
2015,05,25,11,52,16.70
2015,05,25,11,53,16.90
2015,05,25,11,54,17.00
2015,05,25,11,55,17.10
2015,05,25,11,56,17.10
2015,05,25,11,57,17.00
2015,05,25,11,58,17.00
2015,05,25,11,59,17.10
2015,05,25,12,00,17.10
2015,05,25,12,01,17.20
2015,05,25,12,02,17.20
2015,05,25,12,03,17.20
2015,05,25,12,04,17.20
2015,05,25,12,05,17.20
2015,05,25,12,06,17.20
2015,05,25,12,07,17.30
2015,05,25,12,08,17.30
2015,05,25,12,09,17.30
2015,05,25,12,10,17.40
2015,05,25,12,11,17.40
2015,05,25,12,12,17.50
2015,05,25,12,13,17.50
2015,05,25,12,14,17.30
2015,05,25,12,15,17.10
2015,05,25,12,16,16.90
2015,05,25,12,17,16.80
2015,05,25,12,18,16.80
2015,05,25,12,19,16.90
2015,05,25,12,20,17.10
2015,05,25,12,21,17.20
2015,05,25,12,22,17.30
2015,05,25,12,23,17.40
2015,05,25,12,24,17.50
2015,05,25,12,25,17.50
2015,05,25,12,26,17.60
2015,05,25,12,27,17.70
2015,05,25,12,28,17.70
2015,05,25,12,29,17.80
2015,05,25,12,30,17.90
2015,05,25,12,31,18.00
2015,05,25,12,32,18.00
2015,05,25,12,33,18.20
2015,05,25,12,34,18.30
2015,05,25,12,35,18.40
2015,05,25,12,36,18.40
2015,05,25,12,37,18.40
2015,05,25,12,38,18.40
2015,05,25,12,39,18.30
2015,05,25,12,40,18.30
2015,05,25,12,41,18.30
2015,05,25,12,42,18.20
2015,05,25,12,43,18.20
2015,05,25,12,44,18.20
2015,05,25,12,45,18.20
2015,05,25,12,46,18.20
2015,05,25,12,47,18.20
2015,05,25,12,48,18.10
2015,05,25,12,49,18.10
2015,05,25,12,50,18.10
2015,05,25,12,51,18.20
2015,05,25,12,52,18.30
2015,05,25,12,53,18.30
2015,05,25,12,54,18.10
2015,05,25,12,55,18.00
2015,05,25,12,56,18.00
2015,05,25,12,57,18.10
2015,05,25,12,58,18.20
2015,05,25,12,59,18.20
2015,05,25,13,00,18.30
2015,05,25,13,01,18.40
2015,05,25,13,02,18.60
2015,05,25,13,03,18.70
2015,05,25,13,04,18.80
2015,05,25,13,05,18.90
2015,05,25,13,06,19.00
2015,05,25,13,07,19.10
2015,05,25,13,08,19.20
2015,05,25,13,09,19.30
2015,05,25,13,10,19.30
2015,05,25,13,11,19.40
2015,05,25,13,12,19.40
2015,05,25,13,13,19.50
2015,05,25,13,14,19.60
2015,05,25,13,15,19.60
2015,05,25,13,16,19.60
2015,05,25,13,17,19.60
2015,05,25,13,18,19.50
2015,05,25,13,19,19.50
2015,05,25,13,20,19.40
2015,05,25,13,21,19.50
2015,05,25,13,22,19.60
2015,05,25,13,23,19.70
2015,05,25,13,24,19.80
2015,05,25,13,25,19.90
2015,05,25,13,26,19.90
2015,05,25,13,27,20.00
2015,05,25,13,28,20.10
2015,05,25,13,29,20.20
2015,05,25,13,30,20.10
2015,05,25,13,31,20.10
2015,05,25,13,32,20.10
2015,05,25,13,33,20.10
2015,05,25,13,34,20.10
2015,05,25,13,35,20.10
2015,05,25,13,36,20.20
2015,05,25,13,37,20.20
2015,05,25,13,38,20.30
2015,05,25,13,39,20.40
2015,05,25,13,40,20.40
2015,05,25,13,41,20.50
2015,05,25,13,42,20.60
2015,05,25,13,43,20.60
2015,05,25,13,44,20.60
2015,05,25,13,45,20.60
2015,05,25,13,46,20.60
2015,05,25,13,47,20.60
2015,05,25,13,48,20.70
2015,05,25,13,49,20.70
2015,05,25,13,50,20.70
2015,05,25,13,51,20.60
2015,05,25,13,52,20.50
2015,05,25,13,53,20.30
2015,05,25,13,54,20.10
2015,05,25,13,55,19.80
2015,05,25,13,56,19.50
2015,05,25,13,57,19.30
2015,05,25,13,58,19.30
2015,05,25,13,59,19.40
2015,05,25,14,00,19.50
2015,05,25,14,01,19.70
2015,05,25,14,02,19.90
2015,05,25,14,03,20.00
2015,05,25,14,04,20.10
2015,05,25,14,05,20.20
2015,05,25,14,06,20.30
2015,05,25,14,07,20.40
2015,05,25,14,08,20.40
2015,05,25,14,09,20.40
2015,05,25,14,10,20.40
2015,05,25,14,11,20.20
2015,05,25,14,12,20.10
2015,05,25,14,13,20.00
2015,05,25,14,14,19.90
2015,05,25,14,15,19.80
2015,05,25,14,16,19.70
2015,05,25,14,17,19.60
2015,05,25,14,18,19.60
2015,05,25,14,19,19.60
2015,05,25,14,20,19.50
2015,05,25,14,21,19.30
2015,05,25,14,22,19.20
2015,05,25,14,23,19.20
2015,05,25,14,24,19.10
2015,05,25,14,25,19.10
2015,05,25,14,26,19.20
2015,05,25,14,27,19.30
2015,05,25,14,28,19.40
2015,05,25,14,29,19.50
2015,05,25,14,30,19.70
2015,05,25,14,31,19.80
2015,05,25,14,32,20.00
2015,05,25,14,33,20.20
2015,05,25,14,34,20.40
2015,05,25,14,35,20.50
2015,05,25,14,36,20.60
2015,05,25,14,37,20.70
2015,05,25,14,38,20.70
2015,05,25,14,39,20.80
2015,05,25,14,40,20.70
2015,05,25,14,41,20.70
2015,05,25,14,42,20.60
2015,05,25,14,43,20.50
2015,05,25,14,44,20.40
2015,05,25,14,45,20.40
2015,05,25,14,46,20.50
2015,05,25,14,47,20.50
2015,05,25,14,48,20.60
2015,05,25,14,49,20.60
2015,05,25,14,50,20.50
2015,05,25,14,51,20.50
2015,05,25,14,52,20.50
2015,05,25,14,53,20.50
2015,05,25,14,54,20.50
2015,05,25,14,55,20.40
2015,05,25,14,56,20.30
2015,05,25,14,57,20.30
2015,05,25,14,58,20.30
2015,05,25,14,59,20.30
2015,05,25,15,00,20.30
2015,05,25,15,01,20.30
2015,05,25,15,02,20.30
2015,05,25,15,03,20.40
2015,05,25,15,04,20.40
2015,05,25,15,05,20.50
2015,05,25,15,06,20.50
2015,05,25,15,07,20.50
2015,05,25,15,08,20.60
2015,05,25,15,09,20.60
2015,05,25,15,10,20.50
2015,05,25,15,11,20.50
2015,05,25,15,12,20.50
2015,05,25,15,13,20.60
2015,05,25,15,14,20.60
2015,05,25,15,15,20.70
2015,05,25,15,16,20.80
2015,05,25,15,17,20.90
2015,05,25,15,18,21.00
2015,05,25,15,19,21.10
2015,05,25,15,20,21.20
2015,05,25,15,21,21.20
2015,05,25,15,22,21.20
2015,05,25,15,23,21.20
2015,05,25,15,24,21.20
2015,05,25,15,25,21.20
2015,05,25,15,26,21.20
2015,05,25,15,27,21.20
2015,05,25,15,28,21.20
2015,05,25,15,29,21.10
2015,05,25,15,30,21.10
2015,05,25,15,31,21.10
2015,05,25,15,32,21.10
2015,05,25,15,33,21.00
2015,05,25,15,34,20.90
2015,05,25,15,35,20.90
2015,05,25,15,36,20.90
2015,05,25,15,37,20.90
2015,05,25,15,38,20.90
2015,05,25,15,39,20.80
2015,05,25,15,40,20.80
2015,05,25,15,41,20.70
2015,05,25,15,42,20.70
2015,05,25,15,43,20.70
2015,05,25,15,44,20.70
2015,05,25,15,45,20.80
2015,05,25,15,46,20.80
2015,05,25,15,47,20.80
2015,05,25,15,48,20.90
2015,05,25,15,49,21.00
2015,05,25,15,50,21.10
2015,05,25,15,51,21.20
2015,05,25,15,52,21.20
2015,05,25,15,53,21.30
2015,05,25,15,54,21.30
2015,05,25,15,55,21.40
2015,05,25,15,56,21.50
2015,05,25,15,57,21.60
2015,05,25,15,58,21.60
2015,05,25,15,59,21.70
2015,05,25,16,00,21.70
2015,05,25,16,01,21.70
2015,05,25,16,02,21.70
2015,05,25,16,03,21.70
2015,05,25,16,04,21.70
2015,05,25,16,05,21.70
2015,05,25,16,06,21.70
2015,05,25,16,07,21.70
2015,05,25,16,08,21.70
2015,05,25,16,09,21.80
2015,05,25,16,10,21.70
2015,05,25,16,11,21.70
2015,05,25,16,12,21.60
2015,05,25,16,13,21.60
2015,05,25,16,14,21.50
2015,05,25,16,15,21.40
2015,05,25,16,16,21.40
2015,05,25,16,17,21.30
2015,05,25,16,18,21.30
2015,05,25,16,19,21.30
2015,05,25,16,20,21.30
2015,05,25,16,21,21.30
2015,05,25,16,22,21.40
2015,05,25,16,23,21.50
2015,05,25,16,24,21.50
2015,05,25,16,25,21.50
2015,05,25,16,26,21.40
2015,05,25,16,27,21.40
2015,05,25,16,28,21.40
2015,05,25,16,29,21.40
2015,05,25,16,30,21.40
2015,05,25,16,31,21.40
2015,05,25,16,32,21.40
2015,05,25,16,33,21.40
2015,05,25,16,34,21.40
2015,05,25,16,35,21.40
2015,05,25,16,36,21.40
2015,05,25,16,37,21.40
2015,05,25,16,38,21.40
2015,05,25,16,39,21.40
2015,05,25,16,40,21.50
2015,05,25,16,41,21.60
2015,05,25,16,42,21.60
2015,05,25,16,43,21.60
2015,05,25,16,44,21.60
2015,05,25,16,45,21.50
2015,05,25,16,46,21.50
2015,05,25,16,47,21.50
2015,05,25,16,48,21.50
2015,05,25,16,49,21.40
2015,05,25,16,50,21.40
2015,05,25,16,51,21.40
2015,05,25,16,52,21.40
2015,05,25,16,53,21.40
2015,05,25,16,54,21.40
2015,05,25,16,55,21.40
2015,05,25,16,56,21.40
2015,05,25,16,57,21.30
2015,05,25,16,58,21.20
2015,05,25,16,59,21.20
2015,05,25,17,00,21.10
2015,05,25,17,01,21.10
2015,05,25,17,02,21.10
2015,05,25,17,03,21.10
2015,05,25,17,04,21.10
2015,05,25,17,05,21.10
2015,05,25,17,06,21.10
2015,05,25,17,07,21.00
2015,05,25,17,08,21.00
2015,05,25,17,09,21.10
2015,05,25,17,10,21.10
2015,05,25,17,11,21.10
2015,05,25,17,12,21.20
2015,05,25,17,13,21.20
2015,05,25,17,14,21.30
2015,05,25,17,15,21.30
2015,05,25,17,16,21.40
2015,05,25,17,17,21.50
2015,05,25,17,18,21.50
2015,05,25,17,19,21.40
2015,05,25,17,20,21.40
2015,05,25,17,21,21.30
2015,05,25,17,22,21.30
2015,05,25,17,23,21.20
2015,05,25,17,24,21.20
2015,05,25,17,25,21.10
2015,05,25,17,26,21.00
2015,05,25,17,27,21.00
2015,05,25,17,28,20.90
2015,05,25,17,29,20.90
2015,05,25,17,30,20.80
2015,05,25,17,31,20.80
2015,05,25,17,32,20.70
2015,05,25,17,33,20.70
2015,05,25,17,34,20.70
2015,05,25,17,35,20.70
2015,05,25,17,36,20.70
2015,05,25,17,37,20.60
2015,05,25,17,38,20.60
2015,05,25,17,39,20.60
2015,05,25,17,40,20.60
2015,05,25,17,41,20.50
2015,05,25,17,42,20.50
2015,05,25,17,43,20.50
2015,05,25,17,44,20.50
2015,05,25,17,45,20.40
2015,05,25,17,46,20.40
2015,05,25,17,47,20.40
2015,05,25,17,48,20.40
2015,05,25,17,49,20.40
2015,05,25,17,50,20.30
2015,05,25,17,51,20.30
2015,05,25,17,52,20.30
2015,05,25,17,53,20.30
2015,05,25,17,54,20.40
2015,05,25,17,55,20.40
2015,05,25,17,56,20.40
2015,05,25,17,57,20.40
2015,05,25,17,58,20.50
2015,05,25,17,59,20.50
2015,05,25,18,00,20.60
2015,05,25,18,01,20.60
2015,05,25,18,02,20.60
2015,05,25,18,03,20.50
2015,05,25,18,04,20.60
2015,05,25,18,05,20.60
2015,05,25,18,06,20.60
2015,05,25,18,07,20.50
2015,05,25,18,08,20.50
2015,05,25,18,09,20.60
2015,05,25,18,10,20.60
2015,05,25,18,11,20.50
2015,05,25,18,12,20.40
2015,05,25,18,13,20.40